Powrót do katalogu

COSMOS 2570

AktywnyNawigacjaLEO
NORAD 58148·PAYLOAD·🇷🇺 Russia

Wystrzelony Oct 27, 2023 z Plesetsk Cosmodrome

Loading…

Następne Przeloty (najbliższe 24 godziny)

TLE

ŚwieżeSource: Space-Track

Epoka: Sep 14, 2026, 15:04 UTC

1 58148U 23165A   26257.62809737 -.00000059  00000-0  11643-4 0  9991
2 58148  67.1482  72.0496 0006721 267.5832  92.4483 13.96676626147120

Śledź COSMOS 2570 w czasie rzeczywistym z AllMySat

Download on the App Store